This demonstration page uses our WeatherBlox Daily Observations layout. Learn more.

Left ArrowRight Arrow

Hourly Observations for October 12, 2016

Temp ( °F °C ) Dew Point ( °F °C ) Humidity (%) Winds ( mph kmh ) Pressure ( in mb ) Visibility ( mi km ) Precip ( " mm )
12:16 am 00:16 Clear 59 15 50 10 72 72 S 6 9 30.15 1021 10 16.0934 N/A
12:36 am 00:36 Clear 59 15 50 10 72 72 S 6 9 30.15 1021 10 16.0934 N/A
12:57 am 00:57 Clear 57 14 50 10 77 77 S 6 9 30.15 1021 10 16.0934 N/A
1:16 am 01:16 Partly Cloudy 57 14 50 10 77 77 S 6 9 30.15 1021 10 16.0934 N/A
1:36 am 01:36 Partly Cloudy 59 15 50 10 72 72 S 7 11 30.15 1021 10 16.0934 N/A
1:57 am 01:57 Clear 57 14 50 10 77 77 S 5 7 30.15 1021 10 16.0934 N/A
2:16 am 02:16 Clear 57 14 50 10 77 77 S 6 9 30.15 1021 10 16.0934 N/A
2:36 am 02:36 Clear 57 14 50 10 77 77 S 6 9 30.12 1020 10 16.0934 N/A
2:57 am 02:57 Clear 57 14 50 10 77 77 S 6 9 30.15 1021 10 16.0934 N/A
3:16 am 03:16 Clear 57 14 50 10 77 77 S 5 7 30.15 1021 10 16.0934 N/A
3:36 am 03:36 Partly Cloudy 57 14 50 10 77 77 S 5 7 30.15 1021 10 16.0934 N/A
3:57 am 03:57 Mostly Cloudy 57 14 50 10 77 77 S 7 11 30.15 1021 10 16.0934 N/A
4:16 am 04:16 Mostly Cloudy 57 14 50 10 77 77 S 6 9 30.15 1021 10 16.0934 N/A
4:36 am 04:36 Cloudy 59 15 50 10 72 72 S 7 11 30.15 1021 10 16.0934 N/A
4:57 am 04:57 Partly Cloudy 57 14 48 9 72 72 SSW 6 9 30.15 1021 10 16.0934 N/A
5:16 am 05:16 Mostly Cloudy 57 14 48 9 72 72 SSW 6 9 30.15 1021 10 16.0934 N/A
5:36 am 05:36 Cloudy 57 14 48 9 72 72 S 7 11 30.15 1021 10 16.0934 N/A
5:56 am 05:56 Cloudy 57 14 48 9 72 72 S 9 15 30.15 1021 10 16.0934 N/A
6:16 am 06:16 Mostly Cloudy 57 14 48 9 72 72 S 8 13 30.15 1021 10 16.0934 N/A
6:36 am 06:36 Partly Cloudy 57 14 48 9 72 72 S 7 11 30.15 1021 10 16.0934 N/A
6:56 am 06:56 Clear 57 14 48 9 72 72 S 8 13 30.15 1021 10 16.0934 N/A
7:16 am 07:16 Clear 57 14 48 9 72 72 S 7 11 30.15 1021 10 16.0934 N/A
7:37 am 07:37 Clear 55 13 48 9 77 77 S 8 13 30.15 1021 10 16.0934 N/A
7:56 am 07:56 Sunny 55 13 48 9 77 77 S 7 11 30.15 1021 10 16.0934 N/A
8:16 am 08:16 Sunny 55 13 48 9 77 77 S 9 15 30.15 1021 10 16.0934 N/A
8:37 am 08:37 Sunny 57 14 48 9 72 72 S 9 15 30.15 1021 10 16.0934 N/A
8:56 am 08:56 Sunny 57 14 48 9 72 72 S 9 15 30.15 1021 10 16.0934 N/A
9:16 am 09:16 Sunny 59 15 48 9 68 68 S 10 17 30.15 1021 10 16.0934 N/A
9:37 am 09:37 Sunny 61 16 48 9 63 63 S 10 17 30.12 1020 10 16.0934 N/A
9:56 am 09:56 Sunny 63 17 48 9 59 59 SSW 12 19 30.12 1020 10 16.0934 N/A
10:16 am 10:16 Sunny 64 18 48 9 56 56 SSW 13 20 30.12 1020 10 16.0934 N/A
10:37 am 10:37 Sunny 66 19 48 9 52 52 SSW 12 19 30.12 1020 10 16.0934 N/A
10:56 am 10:56 Sunny 68 20 48 9 49 49 SSW 15 24 30.12 1020 10 16.0934 N/A
11:16 am 11:16 Sunny 70 21 48 9 46 46 SSW 14 22 30.12 1020 10 16.0934 N/A
11:37 am 11:37 Sunny 72 22 48 9 44 44 SSW 17 28 30.09 1019 10 16.0934 N/A
11:56 am 11:56 Sunny 73 23 48 9 41 41 SSW 14 22 30.06 1018 10 16.0934 N/A
12:16 pm 12:16 Sunny 73 23 48 9 41 41 SSW 13 20 30.06 1018 10 16.0934 N/A
12:37 pm 12:37 Sunny 75 24 50 10 41 41 SSW 18 30 30.06 1018 10 16.0934 N/A
12:56 pm 12:56 Sunny 75 24 48 9 39 39 SSW 16 26 30.03 1017 10 16.0934 N/A
1:16 pm 13:16 Sunny 75 24 50 10 41 41 SW 18 30 30.06 1018 10 16.0934 N/A
1:36 pm 13:36 Partly Cloudy 75 24 50 10 41 41 SSW 15 24 30.03 1017 10 16.0934 N/A
1:56 pm 13:56 Partly Cloudy 77 25 50 10 39 39 SW 17 28 30.03 1017 10 16.0934 N/A
2:17 pm 14:17 Partly Cloudy 77 25 50 10 39 39 SSW 16 26 30.03 1017 10 16.0934 N/A
2:36 pm 14:36 Mostly Cloudy 77 25 52 11 42 42 SSW 21 33 30.03 1017 10 16.0934 N/A
2:56 pm 14:56 Partly Cloudy 75 24 52 11 44 44 SSW 17 28 30 1016 10 16.0934 N/A
3:16 pm 15:16 Partly Cloudy 77 25 52 11 42 42 SSW 18 30 30 1016 10 16.0934 N/A
3:36 pm 15:36 Partly Cloudy 77 25 52 11 42 42 SSW 21 33 30 1016 10 16.0934 N/A
3:57 pm 15:57 Mostly Cloudy 75 24 52 11 44 44 SW 20 31 30 1016 10 16.0934 N/A
4:16 pm 16:16 Cloudy 73 23 52 11 47 47 SSW 15 24 30 1016 10 16.0934 N/A
4:36 pm 16:36 Cloudy 73 23 52 11 47 47 SW 13 20 30 1016 10 16.0934 N/A
4:57 pm 16:57 Cloudy 73 23 52 11 47 47 SSW 15 24 30 1016 10 16.0934 N/A
5:16 pm 17:16 Cloudy 72 22 52 11 50 50 SW 13 20 30 1016 10 16.0934 N/A
5:36 pm 17:36 Cloudy 72 22 52 11 50 50 SW 15 24 30 1016 10 16.0934 N/A
5:57 pm 17:57 Cloudy 70 21 54 12 57 57 SW 20 31 30 1016 10 16.0934 N/A
6:16 pm 18:16 Cloudy 68 20 54 12 60 60 SW 15 24 30.03 1017 10 16.0934 N/A
6:36 pm 18:36 Cloudy 68 20 54 12 60 60 SW 15 24 30.06 1018 10 16.0934 N/A
6:57 pm 18:57 Cloudy 66 19 55 13 68 68 SW 14 22 30.06 1018 10 16.0934 N/A
7:16 pm 19:16 Cloudy 66 19 55 13 68 68 SW 13 20 30.06 1018 10 16.0934 N/A
7:36 pm 19:36 Cloudy 64 18 55 13 73 73 SW 9 15 30.06 1018 10 16.0934 N/A
7:56 pm 19:56 Cloudy 64 18 57 14 78 78 SW 12 19 30.03 1017 10 16.0934 N/A
8:16 pm 20:16 Cloudy 64 18 57 14 78 78 SW 10 17 30.06 1018 10 16.0934 N/A
8:37 pm 20:37 Cloudy 63 17 57 14 83 83 SSW 12 19 30.03 1017 10 16.0934 N/A
8:56 pm 20:56 Mostly Cloudy 63 17 57 14 83 83 SW 8 13 30.06 1018 10 16.0934 N/A
9:16 pm 21:16 Cloudy 63 17 57 14 83 83 SW 9 15 30.06 1018 10 16.0934 N/A
9:36 pm 21:36 Cloudy 63 17 57 14 83 83 SW 7 11 30.06 1018 7 11.26538 N/A
9:56 pm 21:56 Cloudy 61 16 59 15 94 94 SW 7 11 30.06 1018 10 16.0934 N/A
10:16 pm 22:16 Cloudy 61 16 59 15 94 94 WSW 6 9 30.06 1018 5 8.0467 N/A
10:36 pm 22:36 Cloudy 61 16 59 15 94 94 WSW 8 13 30.06 1018 5 8.0467 N/A
10:56 pm 22:56 Cloudy 61 16 59 15 94 94 WNW 14 22 30.09 1019 5 8.0467 N/A
11:17 pm 23:17 Cloudy 59 15 57 14 94 94 WNW 8 13 30.09 1019 5 8.0467 N/A
11:36 pm 23:36 Cloudy 55 13 54 12 94 94 WNW 13 20 30.09 1019 10 16.0934 N/A
11:56 pm 23:56 Cloudy 55 13 54 12 94 94 WNW 10 17 30.09 1019 10 16.0934 N/A

Powered by AerisWeather